| time (UTC) | temp F | wind direction | speed knots | gust knots | rain 1hr in | rain 24hr in | rain mn in | humidity % | barometer mb |
| 20260905045725 | 85 | 194 | 5.2 | 7.8 | 0.00 | 0.00 | 0.00 | 79 | 1014.7 |
| 20260905044745 | 85 | 189 | 5.2 | 7.8 | 0.00 | 0.00 | 0.00 | 79 | 1014.8 |
| 20260905043802 | 85 | 194 | 3.5 | 7.8 | 0.00 | 0.00 | 0.00 | 79 | 1014.9 |
| 20260905042757 | 85 | 191 | 1.7 | 4.3 | 0.00 | 0.00 | 0.00 | 81 | 1015.0 |
| 20260905041802 | 85 | 201 | 1.7 | 4.3 | 0.00 | 0.00 | 0.00 | 81 | 1015.0 |
| 20260905040821 | 84 | 218 | 1.7 | 4.3 | 0.00 | 0.00 | 0.00 | 81 | 1015.2 |
| 20260905035752 | 84 | 225 | 2.6 | 3.5 | 0.00 | 0.00 | 0.00 | 81 | 1015.0 |
| 20260905034752 | 84 | 242 | 2.6 | 3.5 | 0.00 | 0.00 | 0.00 | 81 | 1014.9 |
| 20260905033721 | 84 | 243 | 2.6 | 3.5 | 0.00 | 0.00 | 0.00 | 80 | 1014.9 |
| 20260905031544 | 85 | 246 | 2.6 | 5.2 | 0.00 | 0.00 | 0.00 | 79 | 1015.2 |
| 20260905030531 | 84 | 257 | 3.5 | 5.2 | 0.00 | 0.00 | 0.00 | 79 | 1015.3 |
| 20260905025459 | 85 | 240 | 4.3 | 7.0 | 0.00 | 0.00 | 0.00 | 78 | 1015.2 |
| 20260905024452 | 85 | 217 | 6.1 | 7.0 | 0.00 | 0.00 | 0.00 | 78 | 1015.0 |
| 20260905023506 | 85 | 212 | 5.2 | 7.8 | 0.00 | 0.00 | 0.00 | 78 | 1015.0 |
| 20260905022512 | 85 | 211 | 6.1 | 7.8 | 0.00 | 0.00 | 0.00 | 78 | 1015.0 |
| 20260905021515 | 86 | 189 | 5.2 | 7.8 | 0.00 | 0.00 | 0.00 | 78 | 1014.9 |
| 20260905020458 | 86 | 188 | 5.2 | 7.8 | 0.00 | 0.00 | 0.00 | 77 | 1014.9 |
| 20260905015444 | 86 | 207 | 5.2 | 7.8 | 0.00 | 0.00 | 0.00 | 78 | 1014.8 |
| 20260905014423 | 86 | 210 | 7.0 | 9.6 | 0.00 | 0.00 | 0.00 | 77 | 1014.7 |
| 20260905013414 | 86 | 202 | 7.0 | 9.6 | 0.00 | 0.00 | 0.00 | 75 | 1014.8 |
| 20260905012415 | 86 | 190 | 7.0 | 9.6 | 0.00 | 0.00 | 0.00 | 78 | 1014.8 |
| 20260905011350 | 86 | 181 | 7.8 | 11.3 | 0.00 | 0.00 | 0.00 | 80 | 1014.7 |
| 20260905010320 | 87 | 181 | 5.2 | 11.3 | 0.00 | 0.00 | 0.00 | 82 | 1014.7 |
| 20260905005325 | 86 | 0 | 2.6 | 6.1 | 0.00 | 0.00 | 0.00 | 83 | 1014.5 |
| 20260905004305 | 86 | 0 | 1.7 | 4.3 | 0.00 | 0.00 | 0.00 | 83 | 1014.6 |
| 20260905003322 | 86 | 0 | 2.6 | 6.1 | 0.00 | 0.00 | 0.00 | 82 | 1014.5 |
| 20260905001210 | 86 | 180 | 3.5 | 7.8 | 0.00 | 0.00 | 0.00 | 82 | 1014.3 |
| 20260905000218 | 86 | 145 | 5.2 | 7.8 | 0.00 | 0.00 | 0.00 | 82 | 1014.3 |
| 20260904235159 | 86 | 0 | 3.5 | 8.7 | 0.00 | 0.00 | 0.00 | 81 | 1014.4 |
| 20260904234123 | 86 | 0 | 4.3 | 8.7 | 0.00 | 0.00 | 0.00 | 81 | 1014.3 |
| 20260904233100 | 86 | 0 | 4.3 | 8.7 | 0.00 | 0.00 | 0.00 | 81 | 1014.3 |
| 20260904232041 | 86 | 94 | 4.3 | 7.8 | 0.00 | 0.00 | 0.00 | 81 | 1014.1 |
| 20260904231007 | 86 | 148 | 4.3 | 8.7 | 0.00 | 0.00 | 0.00 | 83 | 1014.1 |
| 20260904230004 | 86 | 0 | 4.3 | 7.8 | 0.00 | 0.00 | 0.00 | 82 | 1013.9 |
| 20260904223906 | 86 | 134 | 4.3 | 9.6 | 0.00 | 0.00 | 0.00 | 83 | 1014.1 |
| 20260904220526 | 87 | 0 | 7.0 | 12.2 | 0.00 | 0.00 | 0.00 | 82 | 1013.1 |
| 20260904215514 | 87 | 0 | 7.0 | 13.9 | 0.00 | 0.00 | 0.00 | 82 | 1013.1 |
| 20260904213347 | 86 | 0 | 7.8 | 13.0 | 0.00 | 0.00 | 0.00 | 82 | 1013.4 |
| 20260904211219 | 87 | 169 | 6.1 | 10.4 | 0.00 | 0.00 | 0.00 | 81 | 1013.8 |
| 20260904210233 | 87 | 0 | 6.1 | 12.2 | 0.00 | 0.00 | 0.00 | 82 | 1013.7 |
| 20260904205230 | 86 | 109 | 7.0 | 13.9 | 0.00 | 0.00 | 0.00 | 82 | 1013.7 |
| 20260904204217 | 86 | 0 | 7.0 | 13.9 | 0.00 | 0.00 | 0.00 | 81 | 1013.6 |
| 20260904203214 | 87 | 136 | 6.1 | 11.3 | 0.00 | 0.00 | 0.00 | 81 | 1013.6 |
| 20260904202216 | 86 | 144 | 7.0 | 12.2 | 0.00 | 0.00 | 0.00 | 81 | 1013.6 |
| 20260904201203 | 87 | 94 | 7.0 | 12.2 | 0.00 | 0.00 | 0.00 | 81 | 1013.7 |
| 20260904200209 | 86 | 137 | 7.0 | 11.3 | 0.00 | 0.00 | 0.00 | 81 | 1013.9 |
| 20260904195145 | 86 | 0 | 7.0 | 12.2 | 0.00 | 0.00 | 0.00 | 82 | 1014.2 |
| 20260904194125 | 86 | 0 | 6.1 | 13.0 | 0.00 | 0.00 | 0.00 | 82 | 1014.3 |
| 20260904191932 | 87 | 107 | 6.1 | 12.2 | 0.00 | 0.00 | 0.00 | 81 | 1014.2 |
| 20260904185839 | 88 | 0 | 6.1 | 11.3 | 0.00 | 0.00 | 0.00 | 80 | 1014.5 |
| 20260904184839 | 87 | 108 | 6.1 | 10.4 | 0.00 | 0.00 | 0.00 | 81 | 1014.6 |
| 20260904183830 | 87 | 126 | 6.1 | 10.4 | 0.00 | 0.00 | 0.00 | 81 | 1014.7 |
| 20260904182827 | 87 | 60 | 6.1 | 13.0 | 0.00 | 0.00 | 0.00 | 81 | 1015.1 |
| 20260904181815 | 87 | 96 | 5.2 | 10.4 | 0.00 | 0.00 | 0.00 | 80 | 1014.9 |
| 20260904180814 | 88 | 163 | 5.2 | 11.3 | 0.00 | 0.00 | 0.00 | 80 | 1015.2 |
| 20260904175758 | 87 | 96 | 6.1 | 11.3 | 0.00 | 0.00 | 0.00 | 80 | 1015.3 |
| 20260904172533 | 87 | 114 | 7.0 | 11.3 | 0.00 | 0.00 | 0.00 | 80 | 1015.5 |
| 20260904171545 | 88 | 143 | 5.2 | 9.6 | 0.00 | 0.00 | 0.00 | 78 | 1015.6 |
| 20260904165430 | 88 | 131 | 4.3 | 8.7 | 0.00 | 0.00 | 0.00 | 79 | 1015.8 |
| 20260904164436 | 88 | 119 | 2.6 | 7.0 | 0.00 | 0.00 | 0.00 | 75 | 1015.8 |
| 20260904163438 | 89 | 85 | 2.6 | 7.0 | 0.00 | 0.00 | 0.00 | 76 | 1015.8 |
| 20260904162433 | 89 | 160 | 3.5 | 7.0 | 0.00 | 0.00 | 0.00 | 76 | 1015.8 |
| 20260904161406 | 89 | 88 | 3.5 | 7.0 | 0.00 | 0.00 | 0.00 | 77 | 1016.0 |
| 20260904155207 | 89 | 121 | 3.5 | 7.8 | 0.00 | 0.00 | 0.00 | 74 | 1016.4 |
| 20260904154209 | 89 | 184 | 5.2 | 9.6 | 0.00 | 0.00 | 0.00 | 73 | 1016.4 |
| 20260904152016 | 88 | 195 | 7.0 | 9.6 | 0.00 | 0.00 | 0.00 | 71 | 1016.2 |
| 20260904150952 | 88 | 212 | 7.0 | 9.6 | 0.00 | 0.00 | 0.00 | 72 | 1016.1 |
| 20260904144833 | 88 | 195 | 7.0 | 8.7 | 0.00 | 0.00 | 0.00 | 75 | 1016.0 |
| 20260904143843 | 87 | 200 | 5.2 | 8.7 | 0.00 | 0.00 | 0.00 | 75 | 1016.0 |
| 20260904142819 | 87 | 193 | 4.3 | 7.0 | 0.00 | 0.00 | 0.00 | 77 | 1016.0 |
| 20260904141812 | 87 | 189 | 5.2 | 7.0 | 0.00 | 0.00 | 0.00 | 77 | 1015.8 |
| 20260904140756 | 86 | 217 | 5.2 | 9.6 | 0.00 | 0.00 | 0.00 | 78 | 1015.7 |
| 20260904135756 | 86 | 215 | 7.0 | 9.6 | 0.00 | 0.00 | 0.00 | 78 | 1015.6 |
| 20260904134741 | 86 | 215 | 6.1 | 8.7 | 0.00 | 0.00 | 0.00 | 79 | 1015.5 |
| 20260904133718 | 85 | 198 | 5.2 | 7.0 | 0.00 | 0.00 | 0.00 | 79 | 1015.4 |
| 20260904132738 | 85 | 202 | 4.3 | 7.0 | 0.00 | 0.00 | 0.00 | 80 | 1015.4 |
| 20260904131711 | 85 | 186 | 1.7 | 3.5 | 0.00 | 0.00 | 0.00 | 82 | 1015.4 |
| 20260904125540 | 84 | 184 | 2.6 | 4.3 | 0.00 | 0.00 | 0.00 | 82 | 1015.4 |
| 20260904124548 | 83 | 167 | 2.6 | 4.3 | 0.00 | 0.00 | 0.00 | 83 | 1015.3 |
| 20260904123547 | 83 | 186 | 2.6 | 4.3 | 0.00 | 0.00 | 0.00 | 84 | 1015.3 |
| 20260904122555 | 83 | 182 | 3.5 | 4.3 | 0.00 | 0.00 | 0.00 | 84 | 1015.2 |
| 20260904121557 | 83 | 200 | 3.5 | 7.0 | 0.00 | 0.00 | 0.00 | 84 | 1015.2 |
| 20260904115426 | 83 | 192 | 4.3 | 6.1 | 0.00 | 0.00 | 0.00 | 84 | 1014.9 |
| 20260904114411 | 83 | 188 | 5.2 | 7.0 | 0.00 | 0.00 | 0.00 | 84 | 1014.8 |
| 20260904113354 | 83 | 191 | 4.3 | 7.8 | 0.00 | 0.00 | 0.00 | 83 | 1014.6 |
| 20260904112333 | 83 | 185 | 6.1 | 8.7 | 0.00 | 0.00 | 0.00 | 83 | 1014.5 |
| 20260904111322 | 84 | 190 | 6.1 | 8.7 | 0.00 | 0.00 | 0.00 | 82 | 1014.4 |
| 20260904103927 | 84 | 155 | 3.5 | 7.0 | 0.00 | 0.00 | 0.00 | 83 | 1014.0 |
| 20260904102921 | 84 | 144 | 2.6 | 6.1 | 0.00 | 0.00 | 0.00 | 83 | 1014.2 |
| 20260904100817 | 84 | 158 | 3.5 | 6.1 | 0.00 | 0.00 | 0.00 | 83 | 1014.0 |
| 20260904095806 | 84 | 155 | 4.3 | 7.8 | 0.00 | 0.00 | 0.00 | 83 | 1014.0 |
| 20260904094729 | 84 | 175 | 5.2 | 8.7 | 0.00 | 0.00 | 0.00 | 82 | 1013.9 |
| 20260904093713 | 84 | 167 | 5.2 | 8.7 | 0.00 | 0.00 | 0.00 | 82 | 1013.7 |
| 20260904091524 | 85 | 0 | 5.2 | 8.7 | 0.00 | 0.00 | 0.00 | 82 | 1013.5 |
| 20260904090538 | 85 | 137 | 4.3 | 8.7 | 0.00 | 0.00 | 0.00 | 83 | 1013.5 |
| 20260904083244 | 85 | 148 | 5.2 | 7.8 | 0.00 | 0.00 | 0.00 | 83 | 1013.5 |
| 20260904082213 | 85 | 158 | 4.3 | 7.8 | 0.00 | 0.00 | 0.00 | 83 | 1013.4 |
| 20260904081225 | 85 | 159 | 4.3 | 8.7 | 0.00 | 0.00 | 0.00 | 82 | 1013.4 |
| 20260904080208 | 85 | 153 | 5.2 | 8.7 | 0.00 | 0.00 | 0.00 | 82 | 1013.3 |
| 20260904075154 | 85 | 150 | 6.1 | 8.7 | 0.00 | 0.00 | 0.00 | 82 | 1013.3 |
| 20260904073034 | 84 | 0 | 4.3 | 7.8 | 0.00 | 0.00 | 0.00 | 84 | 1013.3 |
| 20260904071958 | 84 | 137 | 5.2 | 7.8 | 0.00 | 0.00 | 0.00 | 85 | 1013.2 |
| 20260904070950 | 84 | 151 | 3.5 | 7.8 | 0.00 | 0.00 | 0.00 | 85 | 1013.3 |
| 20260904065939 | 84 | 163 | 3.5 | 7.0 | 0.00 | 0.00 | 0.00 | 86 | 1013.4 |
| 20260904064939 | 84 | 0 | 3.5 | 7.8 | 0.00 | 0.00 | 0.00 | 86 | 1013.6 |
| 20260904063938 | 84 | 0 | 4.3 | 7.8 | 0.00 | 0.00 | 0.00 | 86 | 1013.6 |
| 20260904062920 | 84 | 140 | 2.6 | 7.0 | 0.00 | 0.00 | 0.00 | 87 | 1013.6 |
| 20260904061921 | 84 | 152 | 2.6 | 7.0 | 0.00 | 0.00 | 0.00 | 86 | 1013.8 |
| 20260904060914 | 83 | 0 | 1.7 | 3.5 | 0.00 | 0.00 | 0.00 | 86 | 1013.9 |
| 20260904055908 | 83 | 142 | 0.9 | 2.6 | 0.00 | 0.00 | 0.00 | 86 | 1014.0 |
| 20260904054921 | 83 | 0 | 1.7 | 2.6 | 0.00 | 0.00 | 0.00 | 86 | 1014.0 |
| 20260904052755 | 83 | 119 | 0.9 | 1.7 | 0.00 | 0.00 | 0.00 | 85 | 1014.4 |
| 20260904051800 | 83 | 130 | 0.0 | 1.7 | 0.00 | 0.00 | 0.00 | 85 | 1014.4 |